User: anonymous   Login
Location: Unspecified
(0.0000°N, 0.0000°E)
Time: 05:00:22
(UTC+00:00)
Language:

Kopernikus 2 - Orbit

View from above orbital plane
View from above orbital plane
View from above satellite
View from above satellite

Ground track
Ground track

The orbit data is extracted from the following two-line orbital elements,

1 20706U 90063B   18292.09357487 -.00000252 +00000-0 +00000-0 0  9998
2 20706 013.3494 025.4443 0008335 251.7669 122.2816 00.99552273095073
Epoch (UTC): 19 October 2018 02:14:44
Eccentricity: 0.0008335
inclination: 13.3494°
perigee height: 35954 km
apogee height: 36024 km
right ascension of ascending node: 25.4443°
argument of perigee: 251.7669°
revolutions per day: 0.99552273
mean anomaly at epoch: 122.2816°
orbit number at epoch: 9507

The dashed part of the orbit path shows where the satellite is in the earth's shadow,  

DLR